EW6420 Weather Reports


Display with metric or nautical units.
time (UTC)temp
F
wind
direction
speed
MPH
gust
MPH
rain 1hr
in
rain 24hr
in
rain mn
in
humidity
%
barometer
mb
20260510210005 61 96 0.0 2.0 0.00 0.00 0.00 66 1019.5
20260510204503 61 55 0.0 2.0 0.00 0.00 0.00 65 1019.2
20260510201505 60 34 0.0 2.0 0.00 0.00 0.00 67 1019.0
20260510200006 59 16 0.0 2.0 0.00 0.00 0.00 71 1018.9
20260510194504 58 3 0.0 2.0 0.00 0.00 0.00 72 1019.0
20260510193003 57 193 1.0 2.0 0.00 0.00 0.00 73 1019.0
20260510191505 57 189 0.0 2.0 0.00 0.00 0.00 73 1019.0
20260510190005 57 183 1.0 3.0 0.00 0.00 0.00 75 1018.7
20260510181502 56 126 0.0 1.0 0.00 0.00 0.00 78 1018.7
20260510180005 55 126 0.0 2.0 0.00 0.00 0.00 78 1018.4
20260510174503 55 101 0.0 2.0 0.00 0.00 0.00 79 1018.3
20260510173003 55 101 0.0 0.0 0.00 0.00 0.00 80 1018.5
20260510171502 54 101 0.0 1.0 0.00 0.00 0.00 81 1018.4
20260510170004 54 101 0.0 2.0 0.00 0.00 0.00 80 1018.3
20260510164503 54 158 0.0 2.0 0.00 0.00 0.00 81 1018.3
20260510163003 54 158 0.0 2.0 0.00 0.00 0.00 81 1017.8
20260510161502 53 158 0.0 2.0 0.00 0.00 0.00 82 1017.8
20260510160004 53 105 0.0 0.0 0.00 0.00 0.00 83 1018.0
20260510154502 53 105 0.0 1.0 0.00 0.00 0.00 83 1017.5
20260510153001 53 105 0.0 0.0 0.00 0.00 0.00 84 1017.5
20260510151503 53 105 0.0 2.0 0.00 0.00 0.00 83 1017.2
20260510150006 52 96 0.0 2.0 0.00 0.00 0.00 85 1017.4
20260510144502 52 96 0.0 1.0 0.00 0.00 0.00 86 1017.4
20260510143004 51 96 0.0 2.0 0.00 0.00 0.00 86 1017.2
20260510140005 51 96 0.0 0.0 0.00 0.00 0.00 89 1016.8
20260510134501 51 96 0.0 0.0 0.00 0.00 0.00 89 1016.6
20260510133002 50 96 0.0 0.0 0.00 0.00 0.00 88 1016.9
20260510131502 50 96 0.0 0.0 0.00 0.00 0.00 87 1017.4
20260510130005 50 96 0.0 0.0 0.00 0.00 0.00 87 1017.3
20260510123004 50 96 0.0 0.0 0.00 0.00 0.00 86 1017.1
20260510121503 50 96 0.0 0.0 0.00 0.00 0.00 86 1017.0
20260510120004 50 96 0.0 0.0 0.00 0.00 0.00 86 1016.9
20260510114502 50 96 0.0 0.0 0.00 0.00 0.00 86 1016.9
20260510110005 50 96 0.0 0.0 0.00 0.00 0.00 84 1017.0
20260510104503 51 96 0.0 0.0 0.00 0.00 0.00 84 1016.7
20260510101502 51 96 0.0 0.0 0.00 0.00 0.00 83 1016.5
20260510100005 51 96 0.0 0.0 0.00 0.00 0.00 83 1016.3
20260510093004 51 96 0.0 0.0 0.00 0.00 0.00 82 1016.0
20260510091504 52 96 0.0 0.0 0.00 0.00 0.00 82 1015.9
20260510090004 52 96 0.0 0.0 0.00 0.00 0.00 81 1015.8
20260510084503 53 96 0.0 0.0 0.00 0.00 0.00 80 1015.8
20260510083002 53 96 0.0 0.0 0.00 0.00 0.00 80 1015.5
20260510081502 54 96 0.0 0.0 0.00 0.00 0.00 78 1015.5
20260510080006 54 96 0.0 0.0 0.00 0.00 0.00 78 1015.6
20260510074505 54 96 0.0 0.0 0.00 0.00 0.00 77 1015.4
20260510073006 55 96 0.0 0.0 0.00 0.00 0.00 76 1015.5
20260510071504 55 96 0.0 0.0 0.00 0.00 0.00 75 1015.6
20260510070008 56 96 0.0 0.0 0.00 0.00 0.00 74 1015.6
20260510064504 56 96 0.0 0.0 0.00 0.00 0.00 73 1015.7
20260510063005 57 96 0.0 0.0 0.00 0.00 0.00 72 1015.8
20260510061504 57 96 0.0 0.0 0.00 0.00 0.00 72 1015.7
20260510060007 58 96 0.0 0.0 0.00 0.00 0.00 71 1015.7
20260510054505 58 96 0.0 0.0 0.00 0.00 0.00 70 1015.6
20260510053005 59 96 0.0 0.0 0.00 0.00 0.00 69 1015.7
20260510051504 59 96 0.0 0.0 0.00 0.00 0.00 67 1015.6
20260510050008 60 96 0.0 0.0 0.00 0.00 0.00 66 1015.6
20260510044504 60 96 0.0 0.0 0.00 0.00 0.00 65 1015.7
20260510040006 62 96 0.0 0.0 0.00 0.00 0.00 62 1015.4
20260510030006 65 96 0.0 0.0 0.00 0.00 0.00 56 1015.4
20260510024505 65 96 0.0 0.0 0.00 0.00 0.00 54 1015.5
20260510023004 66 96 0.0 0.0 0.00 0.00 0.00 54 1015.8
20260510021505 66 96 0.0 1.0 0.00 0.00 0.00 53 1015.8
20260510020005 67 96 0.0 0.0 0.00 0.00 0.00 52 1016.0
20260510014505 67 96 0.0 2.0 0.00 0.00 0.00 52 1016.1
20260510013005 67 96 0.0 2.0 0.00 0.00 0.00 52 1016.5
20260510010006 67 83 0.0 2.0 0.00 0.00 0.00 52 1016.6
20260510004504 67 83 0.0 2.0 0.00 0.00 0.00 52 1016.6
20260510003005 67 83 0.0 2.0 0.00 0.00 0.00 53 1016.9
20260510000005 67 81 0.0 2.0 0.00 0.00 0.00 54 1017.1
20260509234505 67 81 0.0 2.0 0.00 0.00 0.00 54 1017.4
20260509233004 68 81 1.0 3.0 0.00 0.00 0.00 52 1017.3
20260509231502 68 98 0.0 2.0 0.00 0.00 0.00 53 1017.6
20260509230006 67 72 0.0 2.0 0.00 0.00 0.00 53 1017.7
20260509224504 67 104 0.0 2.0 0.00 0.00 0.00 53 1018.1
20260509223005 67 79 0.0 2.0 0.00 0.00 0.00 55 1018.2
20260509220007 67 104 1.0 3.0 0.00 0.00 0.00 56 1018.3
20260509214504 66 92 0.0 2.0 0.00 0.00 0.00 57 1018.3